Regional Weather Roundup
Issued by NWS

Home | Current Version | Previous Version | Text Only | Print | Product List | Glossary On
Versions: 1 2 3 4 5 6 7 8 9 10 11 12 13 14 15 16 17 18 19 20 21 22 23 24 25 26 27 28 29 30 31 32 33 34 35 36 37 38 39 40 41 42 43 44 45 46 47 48 49 50
884
ASUS44 KLIX 232001
RWRLA
LOUISIANA WEATHER ROUNDUP
NATIONAL WEATHER SERVICE NEW ORLEANS LA
300 PM CDT WED APR 23 2014

NOTE: "FAIR" INDICATES FEW OR NO CLOUDS BELOW 12,000 FEET WITH NO
      SIGNIFICANT WEATHER AND/OR OBSTRUCTIONS TO VISIBILITY.
      SKY/WX - SKY CONDITION AND SIGNIFICANT WEATHER.
      TMP - AIR TEMPERATURE.    DP   - DEWPOINT TEMPERATURE.
      RH  - RELATIVE HUMIDITY.  PRES - PRESSURE.
      HX  - HEAT INDEX.         WCI  - WIND CHILL INDEX.

*  THESE STATIONS ARE NOT NWS OR FAA STATIONS AND ARE NOT UNDER
   NWS QUALITY CONTROL.

LAZ040-048-061>063-065-066-069-232100-
SOUTHEAST LOUISIANA

CITY           SKY/WX    TMP DP  RH WIND       PRES   REMARKS
N.O. AUDUBON     N/A     85  60  42 MISG        N/A
N.O. INTL ARPT MOSUNNY   83  56  39 NE7       29.93F
N.O. LAKEFRONT SUNNY     78  64  61 NW6       29.94F
N.O. DOWNTOWN* FAIR      81  54  39 NE6       29.94F
SLIDELL        MOSUNNY   81  60  48 VRB7      29.92F
BATON ROUGE    MOSUNNY   85  54  34 N6        29.93F
BOOTHVILLE     SUNNY     78  62  57 NE3       29.95F
BELLE CHASSE   PTSUNNY   80  58  46 SE3       29.93F
BOGALUSA*        N/A     84  52  32 CALM      29.94F
GALLIANO*      NOT AVBL
NEW ROADS*     NOT AVBL
GONZALES*      NOT AVBL
HAMMOND*       NOT AVBL
HOUMA*         MOSUNNY   84  59  42 S9        29.94F
PORT FOURCHON* CLEAR     77  63  61 SE7       29.97F

$$

LAZ041-044-053-054-232100-
SOUTHWEST LOUISIANA

CITY           SKY/WX    TMP DP  RH WIND       PRES   REMARKS
LAKE CHARLES   PTSUNNY   81  65  58 SW8       29.93F
LAFAYETTE      MOSUNNY   82  57  42 VRB3      29.93F
PATTERSON      MOSUNNY   84  59  42 CALM      29.98S
SALT POINT       N/A     80  67  64 VRB3      29.94F
NEW IBERIA     PTSUNNY   82  61  48 S6        29.93F
CHENAULT AIRPK NOT AVBL

$$

LAZ027-028-232100-
CENTRAL LOUISIANA

CITY           SKY/WX    TMP DP  RH WIND       PRES   REMARKS
FORT POLK      CLOUDY    82  55  39 SE6       29.92F
ALEXANDRIA INT MOSUNNY   82  55  39 VRB6      29.92F
ALEXANDRIA     SUNNY     84  49  29 S3        29.93F

$$

LAZ001-002-232100-
NORTHWEST LOUISIANA

CITY           SKY/WX    TMP DP  RH WIND       PRES   REMARKS
SHREVEPORT     MOSUNNY   84  57  39 VRB6      29.90F
BARKSDALE AFB  NOT AVBL
DTN SHREVEPORT SUNNY     80  59  48 S10       29.91F

$$

LAZ014-016-232100-
NORTHEAST LOUISIANA

CITY           SKY/WX    TMP DP  RH WIND       PRES   REMARKS
MONROE         SUNNY     82  47  29 E8        29.95F
TALLULAH       SUNNY     81  45  28 N6        29.95F

$$




USA.gov is the U.S. government's official web portal to all federal, state and local government web resources and services.